Tracking 28335 objects as of 4-Dec-2023
HD Live streaming from Space Station
objects crossing your sky now

STARLINK-3652

Track STARLINK-3652 now!
10-day predictions
STARLINK-3652 is classified as:


NORAD ID: 51991
Int'l Code: 2022-025AM
Perigee: 545.6 km
Apogee: 548.2 km
Inclination: 53.2 °
Period: 95.4 minutes
Semi major axis: 6917 km
RCS: Unknown
Launch date: March 9, 2022
Source: United States (US)
Launch site: AIR FORCE EASTERN TEST RANGE (AFETR)
Your satellite tracking list
Your tracking list is empty




NASA's NSSDC Master Catalog

Two Line Element Set (TLE):
1 51991U 22025AM  23337.49763719  .00003673  00000-0  24885-3 0  9999
2 51991  53.2158 152.5368 0001931  64.7756 295.3436 15.08829844 96185
Source of the keplerian elements: AFSPC